Theta_e
304 304 304 304 304 305 305 305 305 305 305 306 306 307 308 309 310 314 319 318 315 313 312 314 320 316 318 321 322 321 324 325 324 325 325 325 326 325 325 325 325 327 328 332 346
303 304 304 304 304 304 305 305 305 305 305 306 307 308 309 310 310 318 318 314 314 313 311 319 318 317 318 320 322 324 325 325 326 326 326 326 325 324 324 324 324 325 327 335 341
303 304 304 304 304 305 305 306 305 305 306 307 309 310 310 310 319 318 312 311 310 311 314 319 319 318 318 318 320 323 325 325 325 324 325 325 325 324 323 324 324 324 326 329 339
303 304 304 304 305 305 306 306 305 305 306 308 309 309 310 312 320 317 312 312 312 311 318 317 318 319 319 320 320 323 323 324 323 323 324 324 323 323 323 323 323 324 324 325 333
303 304 304 305 305 306 306 306 306 306 308 309 310 310 310 319 317 314 313 314 319 318 318 317 318 319 320 320 320 321 322 322 322 322 322 323 323 323 323 322 322 322 323 324 330
303 304 305 306 307 307 308 308 308 308 309 308 308 309 316 319 314 313 313 314 317 319 318 318 317 318 319 321 321 321 322 322 321 322 322 323 324 323 323 322 322 322 321 322 324
303 304 306 307 308 308 306 306 307 309 307 306 308 314 317 314 313 312 313 313 315 317 319 318 317 317 318 319 318 319 320 321 321 321 323 322 323 323 322 323 324 323 322 322 322
303 304 306 307 308 307 305 307 308 308 308 308 310 317 316 312 311 312 312 315 315 316 318 319 318 318 318 317 318 319 320 321 320 320 320 320 321 323 321 321 322 323 324 324 323
303 305 306 308 308 307 308 309 310 309 311 311 316 317 313 311 312 311 312 313 314 315 317 318 317 318 318 320 320 319 320 320 322 323 322 322 321 322 321 322 322 322 322 323 324
303 305 305 308 309 308 311 311 311 312 312 313 314 317 312 311 311 311 311 311 312 313 314 318 319 320 320 320 320 320 320 320 320 321 322 323 323 323 322 322 322 322 324 324 324
304 305 305 307 309 308 311 312 312 316 312 312 312 311 311 311 310 311 311 310 311 312 314 314 318 316 319 319 319 320 319 319 321 322 321 321 323 323 324 323 323 324 323 324 326
304 305 305 307 307 310 313 311 310 310 313 312 311 311 310 311 311 311 311 311 311 312 312 312 312 314 315 317 319 320 320 321 320 319 320 321 320 321 322 323 323 323 324 324 324
304 305 306 307 311 311 313 310 310 311 315 312 311 311 310 310 310 311 310 310 311 311 312 311 311 311 311 314 314 316 319 319 317 318 319 320 320 320 321 320 320 320 321 321 322
304 305 305 306 311 311 312 309 310 311 320 314 313 312 310 310 312 309 309 309 310 311 311 311 311 311 311 311 312 313 314 316 318 320 323 320 320 321 321 321 321 320 320 321 321
304 305 305 305 310 310 307 309 310 313 320 313 312 310 310 312 310 311 309 309 311 310 310 310 310 310 310 310 310 310 312 315 316 323 323 322 320 320 321 322 322 323 322 321 321
304 305 305 308 309 307 307 310 312 321 315 312 311 311 312 312 311 310 310 310 310 311 311 311 311 311 310 310 310 311 311 312 312 316 328 323 320 322 320 320 321 322 321 322 322
304 306 306 307 306 306 308 314 318 312 312 312 311 311 312 312 312 311 312 312 311 311 311 312 312 311 310 311 311 312 313 317 318 322 321 319 322 321 320 320 321 321 322 322 322
305 306 310 308 306 306 311 318 313 311 311 310 310 312 313 313 312 312 312 311 311 311 312 313 313 312 312 312 311 312 314 319 316 319 318 319 320 321 321 320 319 319 320 321 322
305 311 310 306 305 308 313 312 313 310 309 309 311 312 314 313 312 312 312 311 311 311 313 314 313 311 312 312 313 314 314 314 315 315 317 320 319 322 321 320 320 321 320 320 321
306 312 310 305 306 310 313 309 310 309 308 310 311 311 314 313 313 313 311 311 311 311 310 312 314 312 312 312 312 314 315 317 317 318 319 318 319 324 321 319 319 320 320 320 320
311 313 310 306 308 311 311 309 309 307 307 309 310 312 313 313 312 312 311 311 311 310 309 311 314 313 312 315 315 314 315 316 317 318 321 320 321 322 321 322 322 324 324 323 321
310 315 308 307 311 310 310 308 305 308 308 309 310 312 313 312 312 312 312 311 309 309 311 311 313 315 314 315 315 315 317 317 320 317 318 320 319 320 323 322 326 325 322 322 322
309 311 309 308 310 311 309 309 307 308 308 309 310 311 311 311 314 312 312 310 309 310 311 311 313 315 315 318 317 316 315 317 315 319 321 321 321 321 322 321 321 322 321 320 319
307 312 309 309 307 309 309 309 308 307 307 307 309 310 312 312 311 313 312 311 310 310 310 310 314 313 315 315 314 316 315 314 318 324 320 320 321 322 321 319 320 321 320 320 319
307 310 307 312 310 308 309 308 307 308 307 308 311 312 313 313 312 313 313 311 310 310 311 312 315 313 314 315 314 314 315 315 316 316 317 318 318 318 318 320 321 318 319 319 321
306 306 306 308 308 309 307 309 306 307 307 310 311 311 312 315 314 313 311 312 311 311 311 311 314 313 315 316 316 316 316 317 318 317 317 317 317 318 318 316 319 319 320 320 321
304 305 306 309 309 309 309 306 305 306 307 308 309 311 313 313 311 310 310 311 311 311 312 310 313 314 316 315 316 321 317 316 314 313 312 314 314 314 315 316 318 318 318 320 320
Wind_Speed
25 25 25 26 25 25 25 24 24 24 24 22 20 18 16 17 16 14 14 13 14 17 14 9 12 16 17 24 26 21 17 21 31 28 22 25 21 26 21 19 25 26 23 8 7
28 28 27 28 28 28 27 25 23 22 21 20 19 18 17 17 17 10 9 9 9 9 2 8 11 15 24 22 28 22 16 33 25 22 23 24 18 17 22 21 21 23 20 8 11
30 29 30 29 29 28 28 26 26 24 20 19 18 16 13 13 9 5 8 13 11 9 6 10 14 15 25 28 28 28 28 23 23 30 19 23 20 20 17 20 17 23 24 18 15
30 31 30 30 28 27 26 25 21 19 19 18 17 15 12 4 5 5 19 16 13 8 9 13 16 22 20 23 30 28 32 29 30 36 26 17 23 24 27 23 22 22 21 24 22
31 32 32 30 28 24 22 21 19 18 17 16 15 13 9 5 5 12 19 19 11 6 10 14 19 23 24 25 27 29 26 33 34 27 29 27 22 23 26 27 22 25 21 22 13
32 32 31 29 26 25 24 22 19 17 14 17 16 10 5 5 9 14 16 13 11 11 13 14 19 21 25 27 26 28 26 26 32 31 30 22 24 27 34 28 27 25 27 27 25
33 32 29 26 24 24 25 23 21 14 19 18 11 9 3 8 9 15 14 14 11 12 14 15 17 22 19 20 31 31 26 25 24 25 26 28 28 31 32 29 28 31 34 31 31
33 30 27 23 22 25 28 21 22 12 22 11 8 5 5 8 8 12 16 13 9 11 13 14 16 20 24 26 30 24 23 24 25 27 27 23 36 24 30 39 39 36 29 29 35
32 29 25 20 21 25 24 21 20 17 23 13 12 4 7 10 13 12 14 14 11 10 12 13 14 21 21 20 20 20 25 29 28 26 26 30 36 24 29 22 20 31 36 38 33
31 28 23 17 19 24 20 22 21 12 16 9 7 5 14 18 13 11 15 16 18 18 17 17 18 16 17 15 19 22 24 26 27 24 25 25 25 22 30 18 18 19 21 25 34
31 29 21 16 15 21 22 14 21 2 13 10 8 6 10 18 14 14 14 20 16 19 19 22 13 15 24 16 29 27 29 32 26 21 17 23 21 20 21 26 19 19 21 19 19
32 28 21 18 13 17 14 16 12 8 9 2 1 3 11 19 22 22 15 20 21 19 17 17 20 22 20 17 17 21 25 27 25 25 24 24 23 23 20 22 25 22 23 26 26
31 25 21 16 11 15 9 15 14 7 8 5 3 6 15 24 25 16 19 21 20 18 19 18 22 25 19 17 17 22 25 23 26 26 27 28 29 28 25 29 35 35 35 33 33
30 22 23 16 6 12 6 16 14 3 5 5 3 5 18 24 8 19 14 20 19 23 21 18 17 13 17 18 21 18 19 23 22 20 18 25 22 25 25 27 29 34 39 36 36
29 19 22 20 8 13 17 15 9 2 3 8 9 7 24 16 13 21 17 22 21 20 18 21 21 20 17 18 19 22 22 20 17 20 22 28 17 20 24 23 23 20 27 41 41
27 15 20 13 11 16 17 12 2 7 6 8 10 17 19 14 19 20 21 16 19 15 18 17 13 16 17 20 16 18 20 22 20 15 12 22 22 22 21 26 21 22 29 31 30
24 11 17 14 19 19 14 6 6 7 13 10 16 20 17 14 16 15 19 15 9 12 17 22 12 18 6 13 16 10 15 11 11 14 16 18 22 22 21 24 23 17 20 25 24
21 8 13 14 18 15 10 11 5 11 11 14 16 19 10 17 16 16 19 11 9 16 16 12 18 5 2 17 20 20 9 7 11 14 14 9 13 22 28 26 27 26 22 16 18
16 7 9 19 14 9 14 5 5 9 13 14 17 9 12 17 15 18 16 7 9 13 9 14 13 28 20 12 2 12 17 16 18 21 15 9 12 22 22 8 8 9 15 23 23
14 3 9 22 9 10 8 2 5 7 11 10 12 7 18 18 16 18 11 7 13 7 13 10 16 15 11 19 12 9 17 8 8 10 16 13 19 15 18 17 14 9 16 17 19
11 6 10 10 9 5 5 5 4 7 10 7 11 15 16 16 18 17 6 11 9 15 18 16 6 12 22 7 14 8 11 11 11 8 4 10 4 15 6 8 8 7 14 6 5
8 5 12 14 4 3 6 4 4 6 6 6 7 8 10 17 10 9 11 11 14 17 16 10 6 13 24 10 4 4 7 5 5 10 13 16 13 7 18 7 15 8 8 7 8
11 6 8 12 5 6 6 4 4 9 9 6 7 5 12 10 6 9 10 14 16 13 6 7 4 10 11 1 7 14 7 5 6 10 17 13 10 10 22 4 2 6 7 1 6
9 4 2 3 5 6 8 4 8 7 8 5 11 10 7 13 11 11 22 8 24 21 14 9 5 11 10 20 22 18 19 14 10 4 12 15 16 28 9 18 23 29 10 12 14
5 4 3 5 7 8 5 5 10 9 5 12 6 7 13 5 18 14 20 20 15 7 3 2 8 16 21 21 21 22 20 15 15 17 16 21 24 20 15 6 18 20 18 16 15
8 7 5 14 7 8 5 5 9 9 10 9 11 15 15 12 10 14 17 18 8 9 9 3 6 19 22 17 11 14 15 16 13 14 20 23 29 26 25 30 27 21 21 21 18
8 7 6 6 5 7 4 7 10 13 10 10 14 16 18 15 26 31 30 26 17 15 15 3 4 6 9 20 18 6 1 4 10 18 20 16 22 22 24 21 22 21 14 15 15
Wind_Direction
6 1 356 353 349 343 339 337 334 333 329 329 327 328 331 326 320 319 293 261 271 293 268 216 238 228 221 228 224 225 246 244 243 247 250 253 256 253 245 251 249 248 245 231 146
1 359 356 352 347 342 339 335 332 332 330 331 331 333 331 329 319 298 248 283 301 320 200 223 228 222 221 228 226 223 229 240 249 256 259 264 245 256 261 232 236 247 231 186 186
357 355 354 349 346 342 338 337 335 332 335 336 336 337 335 335 314 101 324 321 313 302 242 251 253 234 234 231 224 224 239 255 252 257 274 286 270 250 238 249 231 237 227 211 213
356 355 352 350 347 346 342 341 340 339 339 340 340 339 344 5 338 322 342 333 326 307 264 260 249 247 236 240 235 237 242 247 258 271 273 249 271 267 260 243 250 250 239 228 203
358 356 353 353 353 355 354 353 349 344 345 348 354 352 -0 263 23 341 349 337 339 315 267 260 253 247 242 251 242 241 250 253 257 261 263 267 253 256 259 254 249 250 245 239 218
359 357 356 357 360 3 3 1 358 356 354 345 340 335 341 259 344 336 327 323 308 287 277 269 261 262 277 267 260 270 266 264 252 255 264 248 259 252 249 252 256 247 241 237 226
359 358 359 -0 4 8 4 358 349 6 349 347 17 88 51 22 353 351 342 315 299 284 284 278 273 275 270 261 257 265 267 265 258 255 259 259 260 249 253 250 243 237 238 237 232
359 358 358 1 5 4 1 1 2 19 359 24 32 44 58 7 346 352 356 345 319 304 279 278 273 273 269 273 279 275 262 257 246 242 241 234 254 247 241 232 235 239 233 233 231
359 357 356 358 359 2 6 5 12 10 15 29 30 323 43 342 335 327 339 338 328 315 291 274 264 259 265 253 256 251 257 257 257 241 245 225 249 249 256 239 245 226 235 236 236
357 355 352 351 355 1 8 353 357 29 354 349 322 278 20 351 338 323 335 325 305 307 282 233 246 248 240 244 259 261 247 244 254 254 257 238 245 262 249 263 236 234 241 240 230
355 355 355 350 343 358 16 351 357 102 11 33 23 50 353 348 334 311 332 325 320 305 290 295 241 263 286 315 330 294 260 271 280 287 250 261 249 241 243 240 224 224 237 243 240
355 358 1 354 359 14 16 27 13 322 305 27 -0 322 336 343 325 321 320 319 322 304 305 279 268 268 264 287 299 299 291 283 269 269 272 270 266 264 265 268 268 251 236 245 245
356 357 2 1 32 12 11 2 347 320 256 128 325 316 338 331 319 342 328 329 317 307 310 308 301 305 294 253 254 285 288 287 281 277 259 255 252 249 251 255 254 252 249 245 246
354 354 356 7 -0 346 358 341 340 286 263 56 18 57 333 332 346 340 329 323 301 307 306 295 288 293 303 287 293 259 255 271 312 298 280 251 259 250 236 240 242 243 245 241 235
352 351 357 5 353 355 329 332 320 246 305 12 359 319 335 334 314 343 331 322 301 302 299 293 297 289 292 292 299 288 275 273 281 262 271 265 256 250 255 255 242 246 241 231 232
350 347 359 353 351 321 324 318 280 233 28 343 340 342 332 350 341 346 332 317 312 297 282 281 295 288 280 281 276 280 278 276 269 260 252 248 254 258 245 238 245 244 243 243 236
350 346 356 17 334 330 329 300 255 17 348 356 334 332 317 345 347 337 330 329 349 328 333 322 354 333 243 322 291 306 261 256 266 249 256 252 231 243 256 257 252 244 248 231 235
351 359 1 347 331 326 321 268 336 10 1 333 325 306 318 346 348 329 334 334 3 349 328 333 319 182 186 289 301 307 209 265 255 253 266 272 272 239 241 243 253 251 244 249 242
350 2 356 337 337 325 292 26 7 357 339 328 314 331 342 338 342 341 342 342 357 17 354 318 305 321 292 306 84 308 297 289 284 277 267 245 288 282 254 253 213 247 258 242 240
353 330 340 342 8 319 277 50 350 355 333 325 323 340 330 342 339 341 329 10 344 16 345 300 301 299 323 319 271 256 294 288 229 258 253 260 235 221 232 210 205 246 217 234 225
14 286 339 355 341 309 22 33 331 352 341 328 331 315 330 344 335 316 304 327 17 337 326 307 257 286 298 259 295 323 261 207 246 263 270 277 352 14 105 309 90 51 40 34 213
337 298 347 352 296 24 20 3 333 319 328 309 293 301 326 337 322 322 296 345 346 325 324 318 290 293 296 300 343 183 294 284 280 264 286 295 262 307 320 87 98 321 96 64 359
330 307 330 8 16 5 17 285 295 307 322 307 298 316 325 331 309 295 301 304 319 319 300 335 261 306 306 159 263 331 293 235 194 263 266 280 285 160 216 94 322 188 224 242 302
325 319 30 17 73 332 351 11 333 325 317 289 291 293 319 314 304 284 292 327 320 301 295 281 241 239 269 293 311 300 305 288 228 259 289 278 266 277 60 338 320 303 305 310 298
352 38 351 313 358 337 303 305 327 337 301 299 278 270 334 311 314 281 328 321 312 341 284 286 273 277 279 281 284 285 287 290 284 271 276 291 287 287 306 231 227 262 296 296 296
330 337 311 278 297 293 158 336 318 329 310 292 304 319 312 297 273 293 305 299 286 304 335 315 276 305 296 295 275 270 295 316 312 337 319 312 294 299 331 320 303 306 309 301 282
335 307 301 287 292 288 13 322 311 312 297 276 302 309 310 323 311 298 287 277 262 266 279 255 278 307 294 327 314 248 73 6 321 310 304 288 298 318 308 312 313 304 304 284 287